Weather History for Lewiston, ID

Change the Weather History Date:

Sunday, June 9, 2013

  Actual Average Record
Temperature  
Mean Temperature 69 °F 64 °F  
Max Temperature 84 °F 76 °F 101 °F (1918)
Min Temperature 53 °F 52 °F 38 °F (1999)
Degree Days  
Heating Degree Days 0 3  
Month to date heating degree days 9 32  
Since 1 June heating degree days 9 32  
Since 1 July heating degree days 4602 5129  
Cooling Degree Days 4 2  
Month to date cooling degree days 35 18  
Year to date cooling degree days 92 50  
Since 1 June cooling degree days 35 18  
Growing Degree Days 18 (Base 50)    
Moisture  
Dew Point 39 °F    
Average Humidity 37    
Maximum Humidity 59    
Minimum Humidity 15    
Precipitation  
Precipitation 0.00 in 0.05 in 1.27 in (1969)
Month to date precipitation 0.02 0.46  
Year to date precipitation 3.89 6.40  
Snow  
Snow 0.00 in 0.00 in 0.00 in (1995)
Month to date snowfall 0.0 0.0  
Since 1 June snowfall 0.0 0.0  
Since 1 July snowfall 2.6 10.5  
Snow Depth 0.00 in    
Sea Level Pressure  
Sea Level Pressure 29.87 in    
Wind  
Wind Speed 6 mph (NW)    
Max Wind Speed 18 mph    
Max Gust Speed 25 mph    
Visibility 10 miles    
Events      
T = Trace of Precipitation, MM = Missing Value Source: NWS Daily Summary

Daily Weather History Graph

Daily Weather History Graph

Search for Another Location

Airport:

Trip Planner

Search our weather history database for the weather conditions in past years. The results will help you decide how hot, cold, wet, or windy it might be!

Date:

Astronomy

Jun. 09, 2013 Rise Set
Actual Time 4:55 AM PDT 8:39 PM PDT
Civil Twilight 4:17 AM PDT 9:17 PM PDT
Nautical Twilight 3:25 AM PDT 10:10 PM PDT
Astronomical Twilight 2:13 AM PDT 11:22 PM PDT
Moon 6:00 AM PDT (6/9) 9:24 PM PDT (6/9)
Length of Visible Light 17h 00m
Length of Day
15h 43m
New Moon, 1% of the Moon is Illuminated
Jun 9
New Moon
Jun 16
First Quarter
Jun 23
Full
Jun 29
Last Quarter
Jul 8
New

Hourly Weather History & Observations

Time (PDT) Temp. Dew Point Humidity Pressure Visibility Wind Dir Wind Speed Gust Speed Precip Events Conditions
12:56 AM 64.0 °F 42.1 °F 45% 29.90 in 10.0 mi Calm Calm - N/A   Clear
1:56 AM 62.1 °F 39.9 °F 44% 29.90 in 10.0 mi Calm Calm - N/A   Clear
2:56 AM 59.0 °F 39.9 °F 49% 29.91 in 10.0 mi Calm Calm - N/A   Clear
3:56 AM 60.1 °F 41.0 °F 49% 29.91 in 10.0 mi Calm Calm - N/A   Clear
4:56 AM 55.9 °F 41.0 °F 57% 29.92 in 10.0 mi Calm Calm - N/A   Clear
5:56 AM 57.9 °F 42.1 °F 56% 29.93 in 10.0 mi South 3.5 mph - N/A   Clear
6:56 AM 62.1 °F 44.1 °F 52% 29.93 in 10.0 mi Calm Calm - N/A   Clear
7:56 AM 66.9 °F 45.0 °F 45% 29.92 in 10.0 mi NNE 4.6 mph - N/A   Clear
8:56 AM 70.0 °F 45.0 °F 41% 29.92 in 10.0 mi WNW 4.6 mph - N/A   Clear
9:56 AM 72.0 °F 44.1 °F 37% 29.91 in 10.0 mi WNW 8.1 mph - N/A   Clear
10:56 AM 75.0 °F 46.0 °F 36% 29.91 in 10.0 mi North 8.1 mph - N/A   Clear
11:56 AM 77.0 °F 44.1 °F 31% 29.89 in 10.0 mi Variable 6.9 mph 20.7 mph N/A   Clear
12:56 PM 80.1 °F 42.1 °F 26% 29.88 in 10.0 mi NNW 13.8 mph 20.7 mph N/A   Clear
1:56 PM 81.0 °F 36.0 °F 20% 29.87 in 10.0 mi NNW 10.4 mph 23.0 mph N/A   Clear
2:56 PM 82.0 °F 37.9 °F 21% 29.85 in 10.0 mi NNW 12.7 mph - N/A   Clear
3:56 PM 82.9 °F 33.1 °F 17% 29.83 in 10.0 mi North 12.7 mph - N/A   Clear
4:56 PM 82.9 °F 30.9 °F 15% 29.83 in 10.0 mi WNW 11.5 mph - N/A   Clear
5:56 PM 82.0 °F 32.0 °F 16% 29.81 in 10.0 mi WNW 12.7 mph 23.0 mph N/A   Clear
6:56 PM 80.1 °F 33.1 °F 18% 29.81 in 10.0 mi NW 9.2 mph - N/A   Clear
7:56 PM 77.0 °F 34.0 °F 21% 29.81 in 10.0 mi NW 6.9 mph - N/A   Clear
8:56 PM 73.9 °F 33.1 °F 22% 29.81 in 10.0 mi Calm Calm - N/A   Clear
9:56 PM 69.1 °F 35.1 °F 29% 29.82 in 10.0 mi South 4.6 mph - N/A   Clear
10:56 PM 63.0 °F 36.0 °F 37% 29.84 in 10.0 mi South 3.5 mph - N/A   Clear
11:56 PM 62.1 °F 32.0 °F 32% 29.84 in 10.0 mi South 4.6 mph - N/A   Clear